| time (UTC) | temp C | wind direction | speed KPH | gust KPH | rain 1hr cm | rain 24hr cm | rain mn cm | humidity % | barometer mb |
| 20260510090026 | 25 | 309 | 3.2 | 4.8 | 0.00 | 0.00 | 0.00 | 80 | 1007.5 |
| 20260510084527 | 25 | 302 | 1.6 | 4.8 | 0.00 | 0.00 | 0.00 | 80 | 1007.7 |
| 20260510083023 | 25 | 315 | 1.6 | 4.8 | 0.00 | 0.00 | 0.00 | 80 | 1007.7 |
| 20260510081533 | 25 | 305 | 0.0 | 6.4 | 0.00 | 0.00 | 0.00 | 81 | 1007.8 |
| 20260510080020 | 25 | 305 | 1.6 | 3.2 | 0.00 | 0.00 | 0.00 | 81 | 1007.6 |
| 20260510074519 | 26 | 285 | 1.6 | 6.4 | 0.00 | 0.00 | 0.00 | 80 | 1007.6 |
| 20260510073022 | 26 | 309 | 1.6 | 8.0 | 0.00 | 0.00 | 0.00 | 81 | 1007.7 |
| 20260510071516 | 26 | 279 | 1.6 | 6.4 | 0.00 | 0.00 | 0.00 | 81 | 1007.9 |
| 20260510070016 | 26 | 247 | 0.0 | 6.4 | 0.00 | 0.00 | 0.00 | 81 | 1007.7 |
| 20260510064537 | 26 | 305 | 0.0 | 4.8 | 0.00 | 0.00 | 0.00 | 79 | 1007.9 |
| 20260510063015 | 26 | 314 | 4.8 | 8.0 | 0.00 | 0.00 | 0.00 | 79 | 1008.3 |
| 20260510061506 | 27 | 309 | 0.0 | 6.4 | 0.00 | 0.00 | 0.00 | 79 | 1008.6 |
| 20260510060014 | 27 | 305 | 0.0 | 3.2 | 0.00 | 0.00 | 0.00 | 80 | 1008.7 |
| 20260510054503 | 27 | 281 | 0.0 | 3.2 | 0.00 | 0.00 | 0.00 | 80 | 1008.9 |
| 20260510053100 | 27 | 263 | 0.0 | 1.6 | 0.00 | 0.00 | 0.00 | 79 | 1009.1 |
| 20260510051607 | 27 | 297 | 0.0 | 3.2 | 0.00 | 0.00 | 0.00 | 79 | 1009.2 |
| 20260510050058 | 28 | 323 | 0.0 | 3.2 | 0.00 | 0.00 | 0.00 | 78 | 1009.2 |
| 20260510044604 | 28 | 327 | 1.6 | 6.4 | 0.00 | 0.00 | 0.00 | 76 | 1009.2 |
| 20260510043051 | 28 | 315 | 1.6 | 6.4 | 0.00 | 0.00 | 0.00 | 74 | 1009.1 |
| 20260510041520 | 28 | 336 | 0.0 | 8.0 | 0.00 | 0.00 | 0.00 | 75 | 1008.9 |
| 20260510040021 | 28 | 337 | 4.8 | 8.0 | 0.00 | 0.00 | 0.00 | 75 | 1008.9 |
| 20260510034555 | 28 | 191 | 0.0 | 0.0 | 0.00 | 0.00 | 0.00 | 77 | 1008.7 |
| 20260510033047 | 28 | 191 | 0.0 | 1.6 | 0.00 | 0.00 | 0.00 | 76 | 1008.6 |
| 20260510031548 | 28 | 196 | 0.0 | 3.2 | 0.00 | 0.00 | 0.00 | 75 | 1008.5 |
| 20260510030043 | 28 | 184 | 0.0 | 8.0 | 0.00 | 0.00 | 0.00 | 74 | 1008.1 |
| 20260510024541 | 29 | 209 | 1.6 | 6.4 | 0.00 | 0.00 | 0.00 | 72 | 1007.8 |
| 20260510023033 | 29 | 209 | 0.0 | 8.0 | 0.00 | 0.00 | 0.00 | 69 | 1007.5 |
| 20260510021527 | 29 | 196 | 1.6 | 9.7 | 0.00 | 0.00 | 0.00 | 68 | 1007.2 |
| 20260510020023 | 29 | 210 | 1.6 | 8.0 | 0.00 | 0.00 | 0.00 | 68 | 1007.0 |
| 20260510014523 | 30 | 229 | 6.4 | 12.9 | 0.00 | 0.00 | 0.00 | 68 | 1006.5 |
| 20260510013020 | 30 | 217 | 4.8 | 16.1 | 0.00 | 0.00 | 0.00 | 67 | 1006.0 |
| 20260510011512 | 30 | 206 | 3.2 | 14.5 | 0.00 | 0.00 | 0.00 | 66 | 1005.9 |
| 20260510010007 | 31 | 198 | 4.8 | 12.9 | 0.00 | 0.00 | 0.00 | 65 | 1005.7 |
| 20260510004504 | 31 | 215 | 8.0 | 16.1 | 0.00 | 0.00 | 0.00 | 62 | 1005.3 |
| 20260510003003 | 31 | 242 | 6.4 | 14.5 | 0.00 | 0.00 | 0.00 | 64 | 1005.0 |
| 20260510001600 | 32 | 234 | 6.4 | 16.1 | 0.00 | 0.00 | 0.00 | 62 | 1004.7 |
| 20260510000115 | 32 | 188 | 8.0 | 17.7 | 0.00 | 0.00 | 0.00 | 60 | 1004.6 |
| 20260509234621 | 32 | 249 | 9.7 | 17.7 | 0.00 | 0.00 | 0.00 | 59 | 1004.5 |
| 20260509233059 | 33 | 189 | 11.3 | 19.3 | 0.00 | 0.00 | 0.00 | 58 | 1004.6 |
| 20260509231610 | 33 | 235 | 14.5 | 24.1 | 0.00 | 0.00 | 0.00 | 56 | 1004.6 |
| 20260509230104 | 33 | 360 | 14.5 | 30.6 | 0.00 | 0.00 | 0.00 | 55 | 1004.5 |
| 20260509224556 | 33 | 148 | 16.1 | 37.0 | 0.00 | 0.00 | 0.00 | 52 | 1004.4 |
| 20260509223052 | 34 | 174 | 19.3 | 29.0 | 0.00 | 0.00 | 0.00 | 51 | 1004.5 |
| 20260509221548 | 34 | 174 | 24.1 | 38.6 | 0.00 | 0.00 | 0.00 | 50 | 1004.6 |
| 20260509220047 | 34 | 192 | 16.1 | 35.4 | 0.00 | 0.00 | 0.00 | 48 | 1004.7 |
| 20260509214545 | 35 | 166 | 22.5 | 37.0 | 0.00 | 0.00 | 0.00 | 47 | 1004.9 |
| 20260509213047 | 35 | 192 | 20.9 | 38.6 | 0.00 | 0.00 | 0.00 | 45 | 1004.8 |
| 20260509211513 | 36 | 159 | 20.9 | 37.0 | 0.00 | 0.00 | 0.00 | 43 | 1004.9 |
| 20260509210010 | 36 | 202 | 25.7 | 37.0 | 0.00 | 0.00 | 0.00 | 43 | 1005.1 |
| 20260509204538 | 36 | 217 | 22.5 | 35.4 | 0.00 | 0.00 | 0.00 | 43 | 1005.1 |
| 20260509203043 | 35 | 360 | 17.7 | 29.0 | 0.00 | 0.00 | 0.00 | 45 | 1005.2 |
| 20260509201538 | 35 | 183 | 19.3 | 32.2 | 0.00 | 0.00 | 0.00 | 51 | 1005.6 |
| 20260509200034 | 34 | 238 | 22.5 | 33.8 | 0.00 | 0.00 | 0.00 | 53 | 1005.9 |
| 20260509194532 | 35 | 148 | 20.9 | 35.4 | 0.00 | 0.00 | 0.00 | 51 | 1006.0 |
| 20260509193031 | 35 | 168 | 14.5 | 30.6 | 0.00 | 0.00 | 0.00 | 50 | 1006.2 |
| 20260509191528 | 35 | 207 | 24.1 | 37.0 | 0.00 | 0.00 | 0.00 | 50 | 1006.4 |
| 20260509190032 | 35 | 262 | 16.1 | 43.5 | 0.00 | 0.00 | 0.00 | 49 | 1006.6 |
| 20260509184533 | 35 | 209 | 17.7 | 33.8 | 0.00 | 0.00 | 0.00 | 48 | 1006.7 |
| 20260509183031 | 35 | 171 | 20.9 | 37.0 | 0.00 | 0.00 | 0.00 | 45 | 1006.8 |
| 20260509181520 | 35 | 207 | 16.1 | 29.0 | 0.00 | 0.00 | 0.00 | 49 | 1006.9 |
| 20260509180020 | 35 | 360 | 17.7 | 33.8 | 0.00 | 0.00 | 0.00 | 49 | 1007.1 |
| 20260509174518 | 35 | 213 | 16.1 | 37.0 | 0.00 | 0.00 | 0.00 | 46 | 1007.2 |
| 20260509173025 | 35 | 204 | 20.9 | 33.8 | 0.00 | 0.00 | 0.00 | 47 | 1007.2 |
| 20260509171546 | 34 | 175 | 19.3 | 35.4 | 0.00 | 0.00 | 0.00 | 50 | 1007.2 |
| 20260509170048 | 34 | 163 | 19.3 | 32.2 | 0.00 | 0.00 | 0.00 | 51 | 1007.1 |
| 20260509164541 | 34 | 360 | 16.1 | 29.0 | 0.00 | 0.00 | 0.00 | 57 | 1007.3 |
| 20260509163053 | 34 | 360 | 16.1 | 25.7 | 0.00 | 0.00 | 0.00 | 60 | 1007.3 |
| 20260509161546 | 34 | 162 | 6.4 | 22.5 | 0.00 | 0.00 | 0.00 | 59 | 1007.5 |
| 20260509160032 | 34 | 178 | 8.0 | 19.3 | 0.00 | 0.00 | 0.00 | 58 | 1007.5 |
| 20260509154536 | 33 | 167 | 9.7 | 20.9 | 0.00 | 0.00 | 0.00 | 54 | 1007.7 |
| 20260509153027 | 33 | 206 | 6.4 | 12.9 | 0.00 | 0.00 | 0.00 | 55 | 1007.8 |
| 20260509151520 | 32 | 248 | 4.8 | 14.5 | 0.00 | 0.00 | 0.00 | 57 | 1008.0 |
| 20260509150015 | 31 | 206 | 0.0 | 9.7 | 0.00 | 0.00 | 0.00 | 59 | 1008.1 |
| 20260509144512 | 30 | 173 | 4.8 | 12.9 | 0.00 | 0.00 | 0.00 | 63 | 1008.0 |
| 20260509143005 | 30 | 152 | 0.0 | 0.0 | 0.00 | 0.00 | 0.00 | 67 | 1007.9 |
| 20260509141505 | 29 | 171 | 0.0 | 8.0 | 0.00 | 0.00 | 0.00 | 69 | 1007.7 |
| 20260509140002 | 28 | 234 | 0.0 | 0.0 | 0.00 | 0.00 | 0.00 | 72 | 1007.7 |
| 20260509134601 | 27 | 296 | 0.0 | 6.4 | 0.00 | 0.00 | 0.00 | 75 | 1007.7 |
| 20260509133106 | 27 | 284 | 0.0 | 0.0 | 0.00 | 0.00 | 0.00 | 80 | 1007.5 |
| 20260509131558 | 26 | 280 | 0.0 | 8.0 | 0.00 | 0.00 | 0.00 | 82 | 1007.5 |
| 20260509130100 | 25 | 294 | 0.0 | 0.0 | 0.00 | 0.00 | 0.00 | 83 | 1007.4 |
| 20260509124601 | 24 | 304 | 0.0 | 0.0 | 0.00 | 0.00 | 0.00 | 86 | 1007.4 |
| 20260509123103 | 24 | 304 | 0.0 | 0.0 | 0.00 | 0.00 | 0.00 | 86 | 1007.0 |
| 20260509121600 | 24 | 302 | 0.0 | 3.2 | 0.00 | 0.00 | 0.00 | 86 | 1006.7 |
| 20260509120054 | 23 | 308 | 0.0 | 0.0 | 0.00 | 0.00 | 0.00 | 86 | 1006.8 |
| 20260509114602 | 24 | 304 | 0.0 | 0.0 | 0.00 | 0.00 | 0.00 | 86 | 1006.6 |
| 20260509113048 | 24 | 304 | 0.0 | 0.0 | 0.00 | 0.00 | 0.00 | 86 | 1006.5 |
| 20260509111546 | 24 | 304 | 0.0 | 0.0 | 0.00 | 0.00 | 0.00 | 86 | 1006.3 |
| 20260509110046 | 24 | 304 | 0.0 | 0.0 | 0.00 | 0.00 | 0.00 | 86 | 1006.1 |
| 20260509104547 | 24 | 304 | 0.0 | 0.0 | 0.00 | 0.00 | 0.00 | 86 | 1005.9 |
| 20260509103041 | 25 | 304 | 0.0 | 0.0 | 0.00 | 0.00 | 0.00 | 88 | 1005.6 |
| 20260509101541 | 25 | 304 | 0.0 | 0.0 | 0.00 | 0.00 | 0.00 | 88 | 1005.6 |
| 20260509100039 | 25 | 302 | 0.0 | 0.0 | 0.00 | 0.00 | 0.00 | 88 | 1005.5 |
| 20260509094546 | 25 | 339 | 0.0 | 0.0 | 0.00 | 0.00 | 0.00 | 89 | 1005.5 |
| 20260509093007 | 25 | 331 | 3.2 | 8.0 | 0.00 | 0.00 | 0.00 | 88 | 1005.6 |